SCP
0 0 0 0 0 0 0 0 0 0 0 0 0 0 0 0 0 0 0 0 0 0 0 0 0 0 0 0 0 0 0 0 0 0 0 0 0 0
0 0 0 0 0 0 0 0 0 0 0 0 0 0 0 0 0 0 0 0 0 0 0 0 0 0 0 0 0 0 0 0 0 0 0 0 0 0
0 0 0 0 0 0 0 0 0 0 0 0 0 0 0 0 0 0 0 0 0 0 0 0 0 0 0 0 0 0 0 0 0 0 0 0 0 0
0 0 0 0 -0 0 0 0 0 0 0 0 0 0 0 0 0 0 0 0 0 0 0 0 0 0 0 0 0 0 0 0 0 0 0 0 0 0
0 0 0 -0 -0 0 0 0 0 0 0 0 0 0 0 0 0 0 0 0 0 0 0 0 0 0 0 0 0 0 0 0 0 0 0 0 0 0
0 0 0 0 0 0 0 0 0 0 0 0 0 0 0 0 0 0 0 0 0 0 0 0 0 0 0 0 0 0 0 0 0 0 0 0 0 0
0 0 0 0 0 0 0 0 0 0 0 0 0 0 0 0 0 0 0 0 0 0 0 0 0 0 0 0 0 0 0 0 0 0 0 0 0 0
0 0 0 0 0 0 0 0 0 0 0 0 0 0 0 0 0 0 0 0 0 0 0 0 0 0 0 0 0 0 0 0 0 0 0 0 0 0
0 0 0 0 0 0 0 0 0 0 0 0 0 0 0 0 0 0 0 0 0 0 0 0 0 0 0 0 0 0 0 0 0 0 0 0 0 0
0 0 0 0 0 -0 -0 -0 0 0 0 0 0 0 0 0 0 0 0 0 0 0 0 0 0 0 0 0 0 0 0 0 0 0 0 0 0 0
0 0 0 0 0 0 -0 -0 0 0 0 0 0 0 0 0 0 0 0 0 0 0 0 0 0 0 0 0 0 0 0 0 0 0 0 0 0 0
0 0 0 0 0 0 0 0 0 0 0 0 0 0 0 0 0 0 0 0 0 0 0 0 0 0 0 0 0 0 0 0 0 0 0 0 0 0
0 0 0 0 0 0 0 0 0 0 0 0 0 0 0 0 0 0 0 0 0 0 0 0 0 0 0 0 0 0 0 0 0 0 0 0 0 0
0 0 0 0 0 0 0 0 0 0 0 0 0 0 0 0 0 0 0 0 0 0 0 0 0 0 0 0 0 0 0 0 0 0 0 0 0 0
0 0 0 0 0 0 0 0 0 0 0 0 0 0 0 0 0 0 0 0 0 0 0 0 0 0 0 0 0 0 0 0 0 0 0 0 0 0
0 0 0 0 0 0 0 0 0 0 0 0 0 0 0 0 0 0 0 0 0 0 0 0 0 0 0 0 0 0 0 0 0 0 0 0 0 0
0 0 0 0 0 0 0 0 0 0 0 0 0 0 0 0 0 0 0 0 0 0 0 0 0 0 0 0 0 0 0 0 0 0 0 0 0 0
0 0 0 0 0 0 0 0 0 0 0 0 0 0 0 0 0 0 0 0 0 0 0 0 0 0 0 0 0 0 0 0 0 0 0 0 0 0
0 0 0 0 0 0 0 0 0 0 0 0 0 0 0 0 0 0 0 0 0 0 0 0 0 0 0 0 0 0 0 0 0 0 0 0 0 0
-0 0 0 0 0 0 0 0 0 0 0 0 0 0 0 0 0 0 0 0 0 0 0 0 0 0 0 0 0 0 0 0 0 0 0 0 0 0
-0 0 0 0 0 0 0 0 0 0 0 0 0 0 0 0 0 0 0 0 0 0 0 0 0 0 0 0 0 0 0 0 0 0 0 0 0 0
0 0 0 0 0 0 0 0 0 0 0 0 0 0 0 0 0 0 0 0 0 0 0 0 0 0 0 0 0 0 0 0 0 0 0 0 0 0
0 0 0 0 0 0 0 0 0 0 0 0 0 0 0 0 0 0 0 0 0 0 0 0 0 0 0 0 0 0 0 0 0 0 0 0 0 0
Wind_Speed
9 9 8 7 6 6 6 6 6 7 8 5 4 5 6 6 8 8 7 11 13 12 12 12 11 11 10 10 9 8 7 6 6 5 5 6 6 7
7 9 9 7 7 6 7 6 6 7 8 5 5 4 5 6 8 7 7 10 12 13 13 12 12 11 11 10 8 8 7 6 5 5 5 5 5 6
10 10 11 9 7 7 7 7 6 6 8 6 4 4 5 5 5 5 5 6 7 11 13 12 12 11 10 10 9 8 7 6 6 5 5 5 5 5
11 10 11 9 10 8 7 8 7 7 7 8 5 4 5 5 5 4 4 4 5 9 11 11 11 11 11 10 9 8 7 6 5 5 4 3 3 3
11 11 11 11 10 8 8 8 7 7 6 6 6 4 3 3 3 3 4 3 4 6 9 10 11 11 11 10 9 8 7 7 6 4 3 2 2 3
11 11 12 12 11 10 9 9 7 7 6 6 5 4 3 3 3 3 3 2 2 2 4 6 7 9 9 10 9 8 7 6 5 4 3 2 0 2
10 10 11 13 14 12 10 9 8 7 6 6 6 5 4 4 4 3 3 2 1 2 3 3 4 4 5 7 8 8 8 7 6 5 4 2 1 1
10 9 10 12 14 17 17 15 13 11 9 8 6 7 7 6 4 4 4 3 2 2 4 3 3 3 3 3 6 8 8 7 6 5 4 3 1 0
9 8 8 8 11 9 12 14 13 15 14 10 9 9 7 7 6 5 5 4 3 4 4 2 2 2 2 2 7 8 8 7 6 5 4 3 2 1
9 9 8 8 8 9 8 8 8 8 9 8 8 8 7 6 6 6 5 3 2 1 3 3 2 2 2 2 6 8 8 7 6 6 4 3 2 1
8 8 8 7 10 10 8 7 7 6 6 8 8 7 8 8 7 5 5 5 3 1 1 3 3 2 2 1 3 6 7 7 6 5 5 4 3 2
6 6 8 8 9 8 7 7 7 5 5 4 4 4 5 6 8 7 7 6 4 2 3 4 4 3 2 1 1 2 3 4 5 5 4 4 3 2
5 4 4 7 8 8 7 6 7 6 5 5 4 4 3 3 3 3 4 5 5 3 4 5 4 3 3 2 1 1 1 2 2 2 3 3 3 2
4 3 3 5 6 6 5 5 7 6 4 4 4 4 4 4 4 4 4 3 2 4 6 5 4 5 5 4 2 1 1 1 2 1 1 2 2 2
3 4 4 4 3 3 4 5 4 4 4 5 4 4 4 5 5 5 5 6 6 5 3 3 6 5 5 5 4 3 2 1 1 2 1 1 1 0
2 2 2 2 1 1 2 2 2 3 4 4 4 4 4 5 5 5 5 6 5 4 5 5 5 7 5 5 5 4 2 2 2 1 1 1 1 1
2 1 1 1 1 1 1 1 2 3 4 4 4 5 6 6 5 4 4 5 5 5 4 4 5 6 6 5 5 4 3 3 2 2 2 1 1 1
2 2 2 1 1 1 1 2 2 3 3 4 5 5 6 6 5 5 5 6 7 6 5 5 6 6 5 6 5 4 3 3 2 2 2 2 1 1
3 2 1 1 1 1 2 2 2 2 3 4 5 5 6 6 6 6 6 6 6 6 5 4 4 5 7 4 2 3 3 3 3 2 1 1 1 1
3 2 2 2 2 2 2 3 3 3 3 4 5 5 6 6 7 6 6 7 7 6 5 3 3 4 6 6 4 2 3 3 3 2 1 1 1 2
3 3 2 2 2 2 3 3 3 3 4 4 4 5 5 6 7 6 6 9 8 6 6 4 3 6 6 6 6 3 3 3 3 2 2 2 1 2
3 3 2 2 2 2 3 3 3 4 4 4 4 4 5 6 7 8 7 7 6 6 6 5 4 5 4 6 7 5 3 3 5 6 5 3 2 1
2 2 2 2 2 2 3 4 4 4 4 4 4 4 5 6 6 6 7 7 7 7 7 6 5 4 5 5 6 5 5 4 3 4 4 6 6 5
Wind_Direction
242 241 244 246 239 239 238 229 232 257 261 251 245 226 221 225 227 223 228 227 228 224 218 212 210 207 205 201 202 205 210 215 218 225 240 253 265 276
243 242 242 241 238 236 234 238 231 237 258 248 248 251 235 239 234 227 228 233 224 219 215 208 202 199 195 191 194 198 201 205 207 215 228 244 263 279
246 244 243 237 235 235 231 233 234 229 250 264 253 248 241 234 234 229 228 227 221 217 214 205 198 192 189 186 188 190 192 193 198 209 224 239 258 279
244 245 243 238 235 232 233 232 232 229 234 254 255 247 249 230 224 227 239 234 220 212 207 200 194 189 185 184 181 182 184 181 184 192 209 226 253 282
242 242 241 235 236 233 234 234 231 234 229 237 249 247 251 228 223 243 245 243 222 202 197 190 183 181 178 175 171 171 171 171 175 182 192 208 258 296
244 241 238 232 235 234 234 230 227 228 224 227 239 237 239 225 209 221 246 235 210 187 174 169 168 174 176 171 167 166 166 167 171 174 172 163 219 309
250 243 239 239 240 238 239 226 219 225 221 220 229 233 222 211 210 212 225 204 167 167 153 158 158 169 175 172 165 164 165 166 169 169 160 148 146 323
255 250 245 243 244 244 245 239 228 223 219 218 225 225 224 214 198 200 192 187 213 172 152 151 141 164 178 173 162 164 166 163 164 160 150 137 122 16
255 253 253 246 244 239 242 243 240 235 227 220 219 224 220 206 188 198 206 189 192 167 144 145 144 169 161 155 153 158 159 157 154 148 138 126 112 51
258 252 250 249 244 232 229 230 230 229 226 224 221 224 218 200 193 196 185 151 106 122 137 140 137 130 111 129 142 144 148 148 145 142 135 126 109 67
262 256 250 246 247 236 226 221 222 222 221 221 223 214 201 195 185 164 166 161 164 183 143 134 133 105 82 89 124 132 138 140 140 136 130 119 100 75
267 256 254 255 244 237 223 212 213 210 195 197 192 187 185 182 187 187 181 175 162 169 168 135 138 132 114 35 92 120 128 132 132 127 120 112 100 100
269 260 250 252 255 244 236 218 206 199 186 182 173 165 164 169 174 176 178 179 177 173 166 141 137 134 133 135 74 81 110 131 146 132 120 105 100 101
272 266 254 252 252 242 234 204 192 195 181 175 173 171 165 159 148 137 130 122 128 147 155 147 141 154 139 131 137 116 93 118 131 132 137 115 98 58
285 283 279 278 264 233 204 192 192 183 172 172 173 164 158 151 135 122 115 105 87 80 106 124 130 137 133 136 136 140 135 120 110 109 109 106 124 68
305 316 328 327 292 186 171 175 177 167 164 159 152 146 137 134 134 138 136 128 107 81 61 80 112 125 118 114 127 129 126 133 132 110 102 86 54 46
331 350 13 24 66 79 90 107 118 131 137 138 141 141 135 132 133 136 133 127 125 129 110 82 79 85 91 114 116 114 116 112 125 123 115 97 41 358
27 30 12 36 71 87 90 90 107 125 134 138 139 137 137 139 132 125 126 126 126 127 127 128 120 103 80 55 60 115 113 109 111 108 111 117 82 340
37 37 20 39 63 75 94 105 109 114 123 130 130 134 136 134 132 130 127 123 123 126 128 135 135 129 122 114 44 46 119 122 118 104 88 96 134 289
28 27 16 37 60 71 92 103 103 99 102 111 121 127 131 130 129 130 133 133 129 125 119 111 116 132 136 138 130 75 71 121 129 123 89 53 24 353
16 17 16 36 56 76 86 93 94 96 101 107 112 119 126 126 125 127 127 127 124 124 126 122 110 112 106 102 100 83 52 56 95 124 120 94 53 29
14 11 16 33 60 86 95 97 95 97 102 103 107 109 114 120 124 125 126 125 123 123 118 110 106 102 97 112 114 111 90 56 56 65 68 77 118 129
5 8 17 37 62 78 94 99 98 103 104 105 106 105 106 112 117 119 119 120 119 119 117 114 102 88 91 106 112 109 100 86 70 66 46 39 55 60